User: anonymous   Login
Location: Earls Croome
(52.0667°N, 2.2000°W)
Time: 15:50:15
(UTC+00:00)
Language:

COSMOS 2428 - Orbit

View from above orbital plane
View from above orbital plane
View from above satellite
View from above satellite

Ground track
Ground track

The orbit data is extracted from the following two-line orbital elements,

1 31792U 07029A   20018.14456465 -.00000218  00000-0 -92183-4 0  9996
2 31792  70.9249 230.6279 0010325 297.9976  62.0100 14.12398376647509
Epoch (UTC): 18 January 2020 03:28:10
Eccentricity: 0.0010325
inclination: 70.9249°
perigee height: 844 km
apogee height: 858 km
right ascension of ascending node: 230.6279°
argument of perigee: 297.9976°
revolutions per day: 14.12398376
mean anomaly at epoch: 62.0100°
orbit number at epoch: 64750

The dashed part of the orbit path shows where the satellite is in the earth's shadow,  

DLR